User: anonymous
Location: Shell Point
(30.0571°N, 84.2896°W)
Time: 16:35:05
(UTC-04:00)
Language:

Meteor 2-19 Rocket - Orbit

View from above orbital plane
View from above orbital plane
View from above satellite
View from above satellite

Ground track
Ground track

The orbit data is extracted from the following two-line orbital elements,

1 20671U 90057B   14205.92735157  .00000049  00000-0  30293-4 0   296
2 20671 082.5491 133.2955 0016168 053.6385 013.4272 13.84574287216622
Epoch (UTC): 24 July 2014 22:15:23
Eccentricity: 0.0016168
inclination: 82.5491°
perigee height: 936 km
apogee height: 959 km
right ascension of ascending node: 133.2955°
argument of perigee: 53.6385°
revolutions per day: 13.84574287
mean anomaly at epoch: 13.4272°
orbit number at epoch: 21662

The dashed part of the orbit path shows where the satellite is in the earth's shadow,  

DLR